Location: D�derode
(51.8092°N, 10.1065°E)
Time: 06:03:13
(UTC+00:00)

USA 215 - Pass Details

Date: 01 December 2020
Orbit: 1098 x 1110 km, 123.0° (Epoch: 22 January)

Event Time Altitude Azimuth Distance (km) Brightness Sun altitude
Exits shadow 16:59:29 20° 94° (E) 2,328 4.4 -15.7°
Maximum altitude 17:02:08 25° 128° (SE) 2,057 4.4 -16.1°
Drops below altitude 10° 17:07:23 10° 181° (S) 2,966 5.7 -16.9°
Sets 17:10:23 0° 194° (SSW) 3,921 6.5 -17.3°
